logo tempoitalia

Diretta Meteo Cluj-Napoca, Romanialunedì 31 agosto ore 08:00

Mappa
Sereno 16 °C Sereno 24 Ore: T.min 14 T.max 30
Ponente Nord Km/h 3.7 Punto di rugiada: 13 °C Umidità: 82% Visibilità: 10 Km
Il sole sorge alle: 06:44 Il sole tramonta alle: 20:07
31 Agosto 2026 08:00 tempo osservato: Sereno Sereno 16 82 1018 vento: Nord N 3.7
31 Agosto 2026 07:30 tempo osservato: Sereno Sereno 15 87 1018 vento: Nord N 3.7
31 Agosto 2026 07:00 tempo osservato: Sereno Sereno 14 87 1018 vento: Nord E 7.4
31 Agosto 2026 06:30 tempo osservato: Sereno Sereno 15 82 1018 vento: Nord N 3.7
31 Agosto 2026 06:00 tempo osservato: Sereno Sereno 16 77 1018 vento: Nord N 0
31 Agosto 2026 05:30 tempo osservato: Sereno Sereno 16 77 1018 vento: Nord N 3.7
31 Agosto 2026 05:00 tempo osservato: Sereno Sereno 16 77 1018 vento: Nord N 3.7
31 Agosto 2026 04:30 tempo osservato: Sereno Sereno 17 77 1018 vento: Nord O 7.4
31 Agosto 2026 04:00 tempo osservato: Sereno Sereno 17 77 1018 vento: Nord O 7.4
31 Agosto 2026 03:30 tempo osservato: Sereno Sereno 17 77 1018 vento: Nord O 7.4
31 Agosto 2026 03:00 tempo osservato: Sereno Sereno 18 77 1018 vento: Nord O 7.4
31 Agosto 2026 02:30 tempo osservato: Sereno Sereno 18 82 1018 vento: Nord O 9.3
31 Agosto 2026 02:00 tempo osservato: Sereno Sereno 19 77 1018 vento: Nord O 11.1
31 Agosto 2026 01:30 tempo osservato: Sereno Sereno 19 77 1018 vento: Nord O 9.3
31 Agosto 2026 01:00 tempo osservato: Sereno Sereno 20 72 1018 vento: Nord O 11.1
31 Agosto 2026 00:30 tempo osservato: Sereno Sereno 20 72 1018 vento: Nord O 11.1
31 Agosto 2026 00:00 tempo osservato: Sereno Sereno 20 77 1018 vento: Nord O 9.3
30 Agosto 2026 23:30 tempo osservato: Sereno Sereno 20 77 1017 vento: Nord O 9.3
30 Agosto 2026 23:00 tempo osservato: Sereno Sereno 20 77 1017 vento: Nord O 7.4
30 Agosto 2026 22:30 tempo osservato: Sereno Sereno 20 77 1017 vento: Nord O 7.4
30 Agosto 2026 22:00 tempo osservato: Sereno Sereno 21 73 1017 vento: Nord O 7.4
30 Agosto 2026 21:30 tempo osservato: Sereno Sereno 22 64 1017 vento: Nord O/SO 7.4
30 Agosto 2026 21:00 tempo osservato: Sereno Sereno 23 64 1016 vento: Nord N 5.5
30 Agosto 2026 20:30 tempo osservato: Sereno Sereno 25 57 1016 vento: Nord N 1.8
30 Agosto 2026 20:00 tempo osservato: Sereno Sereno 27 47 1015 vento: Nord N 1.8
30 Agosto 2026 19:30 tempo osservato: Sereno Sereno 29 39 1015 vento: Nord N 3.7
30 Agosto 2026 19:00 tempo osservato: Sereno Sereno 29 37 1015 vento: Nord N 1.8
30 Agosto 2026 18:30 tempo osservato: Sereno Sereno 30 37 1015 vento: Nord N 5.5
30 Agosto 2026 18:00 tempo osservato: Poco Nuvoloso Poco Nuvoloso 30 40 1015 vento: Nord O/SO 7.4
30 Agosto 2026 17:30 tempo osservato: Poco Nuvoloso Poco Nuvoloso 29 42 1016 vento: Nord O 9.3
30 Agosto 2026 17:00 tempo osservato: Poco Nuvoloso Poco Nuvoloso 29 48 1016 vento: Nord O/NO 9.3
30 Agosto 2026 16:30 tempo osservato: Poco Nuvoloso Poco Nuvoloso 28 54 1016 vento: Nord O 11.1
30 Agosto 2026 16:00 tempo osservato: Nuvoloso Nuvoloso 27 57 1016 vento: Nord O 13
30 Agosto 2026 15:30 tempo osservato: Nuvoloso Nuvoloso 25 73 1016 vento: Nord O 11.1
30 Agosto 2026 15:00 tempo osservato: Temporale Temporale 23 78 1016 vento: Nord O/SO 18.5
30 Agosto 2026 14:30 tempo osservato: Temporale nelle vicinanze Temporale nelle vicinanze 28 42 1016 vento: Nord SE 7.4
30 Agosto 2026 13:30 tempo osservato: Nuvoloso Nuvoloso 29 39 1017 vento: Nord N 7.4
30 Agosto 2026 13:00 tempo osservato: Poco Nuvoloso Poco Nuvoloso 28 45 1017 vento: Nord N 5.5
30 Agosto 2026 12:30 tempo osservato: Poco Nuvoloso Poco Nuvoloso 28 45 1017 vento: Nord N 5.5
30 Agosto 2026 12:00 tempo osservato: Poco Nuvoloso Poco Nuvoloso 27 44 1017 vento: Nord N 5.5
30 Agosto 2026 11:30 tempo osservato: Poco Nuvoloso Poco Nuvoloso 26 47 1018 vento: Nord E 9.3
30 Agosto 2026 11:00 tempo osservato: Sereno Sereno 24 53 1018 vento: Nord N 3.7
30 Agosto 2026 10:30 tempo osservato: Sereno Sereno 23 56 1018 vento: Nord N 3.7
30 Agosto 2026 10:00 tempo osservato: Sereno Sereno 22 60 1018 vento: Nord N 1.8
30 Agosto 2026 09:30 tempo osservato: Sereno Sereno 21 64 1018 vento: Nord N 5.5
30 Agosto 2026 09:00 tempo osservato: Sereno Sereno 20 68 1018 vento: Nord N 3.7